EW1734 Weather Reports


Display with metric or nautical units.
time (UTC)temp
F
wind
direction
speed
MPH
gust
MPH
rain 1hr
in
rain 24hr
in
rain mn
in
humidity
%
barometer
mb
20260503025347 69 64 2.0 3.0 0.00 0.00 0.00 66 1010.8
20260503024844 69 100 1.0 2.0 0.00 0.00 0.00 65 1010.6
20260503024340 70 65 0.0 4.0 0.00 0.00 0.00 65 1010.6
20260503023837 70 75 1.0 3.0 0.00 0.00 0.00 64 1010.3
20260503023335 71 225 1.0 2.0 0.00 0.00 0.00 63 1010.4
20260503022832 71 116 2.0 3.0 0.00 0.00 0.00 63 1010.3
20260503022331 71 25 5.0 6.0 0.00 0.00 0.00 62 1010.2
20260503021828 71 105 2.0 2.0 0.00 0.00 0.00 61 1010.2
20260503021324 72 7 4.0 4.0 0.00 0.00 0.00 61 1010.1
20260503020822 73 347 0.0 3.0 0.00 0.00 0.00 60 1010.0
20260503020320 73 355 2.0 2.0 0.00 0.00 0.00 59 1009.9
20260503015816 74 307 1.0 2.0 0.00 0.00 0.00 59 1010.0
20260503015313 74 277 0.0 3.0 0.00 0.00 0.00 58 1009.8
20260503014809 75 356 1.0 2.0 0.00 0.00 0.00 57 1009.9
20260503014307 75 277 0.0 4.0 0.00 0.00 0.00 57 1009.8
20260503013804 76 331 0.0 2.0 0.00 0.00 0.00 56 1009.9
20260503013301 77 338 2.0 4.0 0.00 0.00 0.00 55 1009.7
20260503012758 77 307 0.0 2.0 0.00 0.00 0.00 54 1010.0
20260503012255 78 325 0.0 6.0 0.00 0.00 0.00 53 1009.9
20260503011752 78 329 3.0 4.0 0.00 0.00 0.00 53 1009.7
20260503011249 78 224 2.0 4.0 0.00 0.00 0.00 53 1009.7
20260503010745 78 291 0.0 2.0 0.00 0.00 0.00 53 1009.9
20260503010242 78 309 0.0 3.0 0.00 0.00 0.00 52 1009.7
20260503005740 79 333 2.0 3.0 0.00 0.00 0.00 51 1009.9
20260503005237 79 286 3.0 4.0 0.00 0.00 0.00 52 1009.9
20260503004733 79 222 1.0 4.0 0.00 0.00 0.00 52 1009.9
20260503004231 80 264 1.0 2.0 0.00 0.00 0.00 50 1009.9
20260503003728 82 345 2.0 3.0 0.00 0.00 0.00 49 1009.9
20260503003225 82 269 1.0 3.0 0.00 0.00 0.00 48 1009.9
20260503002722 82 312 0.0 4.0 0.00 0.00 0.00 48 1009.7
20260503002219 84 351 2.0 3.0 0.00 0.00 0.00 46 1009.9
20260503001715 84 304 2.0 4.0 0.00 0.00 0.00 46 1010.0
20260503001211 83 253 0.0 3.0 0.00 0.00 0.00 47 1010.1
20260503000710 84 291 2.0 2.0 0.00 0.00 0.00 46 1010.0
20260503000207 84 197 1.0 3.0 0.00 0.00 0.00 47 1010.0
20260502235703 83 244 2.0 3.0 0.00 0.00 0.00 47 1010.3
20260502235201 83 293 1.0 4.0 0.00 0.00 0.00 47 1010.1
20260502234657 83 244 5.0 6.0 0.00 0.00 0.00 47 1010.1
20260502234154 83 300 2.0 3.0 0.00 0.00 0.00 48 1010.1
20260502233650 83 329 2.0 4.0 0.00 0.00 0.00 47 1010.2
20260502233147 83 345 1.0 4.0 0.00 0.00 0.00 47 1010.2
20260502232643 84 315 2.0 4.0 0.00 0.00 0.00 46 1010.2
20260502232141 84 338 2.0 3.0 0.00 0.00 0.00 46 1010.3
20260502231637 83 357 2.0 7.0 0.00 0.00 0.00 47 1010.4
20260502231135 83 243 0.0 4.0 0.00 0.00 0.00 47 1010.4
20260502230633 84 328 3.0 4.0 0.00 0.00 0.00 47 1010.4
20260502230131 85 281 4.0 4.0 0.00 0.00 0.00 46 1010.5
20260502225626 84 325 3.0 6.0 0.00 0.00 0.00 47 1010.6
20260502225124 84 329 0.0 3.0 0.00 0.00 0.00 46 1010.6
20260502224620 84 340 2.0 4.0 0.00 0.00 0.00 47 1010.8
20260502224117 84 322 0.0 2.0 0.00 0.00 0.00 46 1011.0
20260502223615 85 331 3.0 4.0 0.00 0.00 0.00 45 1011.0
20260502223113 84 279 2.0 3.0 0.00 0.00 0.00 45 1010.9
20260502222610 84 338 4.0 6.0 0.00 0.00 0.00 45 1011.1
20260502222106 85 303 2.0 4.0 0.00 0.00 0.00 45 1011.3
20260502221602 85 334 2.0 3.0 0.00 0.00 0.00 45 1011.4
20260502221100 86 302 4.0 4.0 0.00 0.00 0.00 44 1011.4
20260502220555 85 339 3.0 4.0 0.00 0.00 0.00 45 1011.3
20260502220052 84 302 2.0 6.0 0.00 0.00 0.00 45 1011.4
20260502215549 85 280 4.0 5.0 0.00 0.00 0.00 45 1011.4
20260502215046 84 244 2.0 4.0 0.00 0.00 0.00 45 1011.7
20260502214543 84 306 3.0 3.0 0.00 0.00 0.00 45 1011.7
20260502214041 83 278 4.0 4.0 0.00 0.00 0.00 47 1011.7
20260502213537 83 226 3.0 5.0 0.00 0.00 0.00 46 1011.7
20260502213035 82 36 3.0 3.0 0.00 0.00 0.00 45 1012.0
20260502212534 81 290 1.0 4.0 0.00 0.00 0.00 45 1011.9
20260502212031 81 180 3.0 9.0 0.00 0.00 0.00 45 1012.1
20260502211526 81 196 3.0 8.0 0.00 0.00 0.00 45 1012.2
20260502211024 81 182 3.0 6.0 0.00 0.00 0.00 45 1012.2
20260502210521 80 352 1.0 5.0 0.00 0.00 0.00 47 1012.2
20260502210018 79 123 3.0 10.0 0.00 0.00 0.00 47 1012.3
20260502205514 79 25 3.0 6.0 0.00 0.00 0.00 47 1012.1
20260502205011 79 240 4.0 6.0 0.00 0.00 0.00 47 1012.3
20260502204508 78 235 0.0 7.0 0.00 0.00 0.00 48 1012.2
20260502204006 80 189 4.0 5.0 0.00 0.00 0.00 48 1012.4
20260502203503 78 133 2.0 4.0 0.00 0.00 0.00 48 1012.4
20260502202959 78 177 4.0 6.0 0.00 0.00 0.00 48 1012.5
20260502202456 77 212 3.0 5.0 0.00 0.00 0.00 49 1012.6
20260502201954 77 177 1.0 7.0 0.00 0.00 0.00 50 1012.9
20260502201450 76 229 2.0 7.0 0.00 0.00 0.00 51 1012.7
20260502200947 77 322 0.0 2.0 0.00 0.00 0.00 49 1012.7
20260502200442 77 326 0.0 4.0 0.00 0.00 0.00 49 1013.0
20260502195940 76 205 5.0 5.0 0.00 0.00 0.00 50 1013.0
20260502195437 76 131 3.0 5.0 0.00 0.00 0.00 51 1013.1
20260502194934 74 126 2.0 5.0 0.00 0.00 0.00 52 1013.3
20260502194431 74 147 2.0 4.0 0.00 0.00 0.00 53 1013.5
20260502193926 74 184 1.0 5.0 0.00 0.00 0.00 54 1013.5
20260502193424 74 273 0.0 4.0 0.00 0.00 0.00 54 1013.5
20260502192919 74 214 2.0 7.0 0.00 0.00 0.00 56 1013.4
20260502192416 73 109 2.0 5.0 0.00 0.00 0.00 57 1013.6
20260502191913 73 110 0.0 3.0 0.00 0.00 0.00 56 1013.8
20260502191411 72 169 1.0 4.0 0.00 0.00 0.00 56 1013.7
20260502190909 72 161 4.0 6.0 0.00 0.00 0.00 58 1013.9
20260502190406 72 172 2.0 5.0 0.00 0.00 0.00 59 1014.1
20260502185901 71 89 0.0 5.0 0.00 0.00 0.00 61 1014.1
20260502185357 71 160 1.0 4.0 0.00 0.00 0.00 60 1014.1
20260502184855 72 214 2.0 4.0 0.00 0.00 0.00 61 1014.1
20260502184350 71 175 3.0 5.0 0.00 0.00 0.00 61 1014.3
20260502183847 71 193 3.0 5.0 0.00 0.00 0.00 61 1014.3
20260502183343 71 202 3.0 6.0 0.00 0.00 0.00 63 1014.2
20260502182838 70 81 2.0 2.0 0.00 0.00 0.00 65 1014.2
20260502182333 69 189 3.0 5.0 0.00 0.00 0.00 65 1014.2
20260502181830 70 26 1.0 4.0 0.00 0.00 0.00 64 1014.2
20260502181329 69 192 2.0 3.0 0.00 0.00 0.00 67 1014.1
20260502180827 68 125 4.0 5.0 0.00 0.00 0.00 68 1014.2
20260502180324 67 181 2.0 4.0 0.00 0.00 0.00 71 1014.4
20260502170243 62 190 2.0 3.0 0.00 0.00 0.00 81 1015.2
20260502164231 62 73 3.0 3.0 0.00 0.00 0.00 82 1015.1
20260502163726 61 38 0.0 2.0 0.00 0.00 0.00 84 1015.2
20260502163223 61 254 1.0 2.0 0.00 0.00 0.00 83 1015.3
20260502162719 60 129 0.0 1.0 0.00 0.00 0.00 85 1015.3
20260502162216 59 76 3.0 4.0 0.00 0.00 0.00 87 1015.3
20260502161713 59 87 2.0 3.0 0.00 0.00 0.00 88 1015.1
20260502161210 59 115 4.0 5.0 0.00 0.00 0.00 88 1015.2
20260502160708 58 148 0.0 4.0 0.00 0.00 0.00 89 1015.1
20260502160207 58 58 3.0 4.0 0.00 0.00 0.00 90 1014.9
20260502152120 57 72 2.0 5.0 0.00 0.00 0.00 92 1014.7
20260502151617 57 72 2.0 3.0 0.00 0.00 0.00 92 1014.8
20260502151115 57 114 2.0 3.0 0.00 0.00 0.00 92 1014.6
20260502150612 57 136 1.0 3.0 0.00 0.00 0.00 92 1014.4
20260502150108 57 55 3.0 5.0 0.00 0.00 0.00 92 1014.8
20260502130457 52 82 1.0 2.0 0.00 0.00 0.00 92 1014.1
20260502123440 52 47 2.0 3.0 0.00 0.00 0.00 90 1013.8
20260502122937 52 114 1.0 2.0 0.00 0.00 0.00 90 1013.8
20260502122433 53 58 2.0 3.0 0.00 0.00 0.00 90 1013.6
20260502121931 53 113 0.0 2.0 0.00 0.00 0.00 91 1013.6
20260502121428 53 83 2.0 3.0 0.00 0.00 0.00 91 1013.5
20260502120926 53 33 1.0 2.0 0.00 0.00 0.00 91 1013.6
20260502120422 53 35 3.0 4.0 0.00 0.00 0.00 91 1013.7
20260502115919 53 72 1.0 2.0 0.00 0.00 0.00 91 1013.8
20260502115416 53 88 2.0 3.0 0.00 0.00 0.00 91 1013.6
20260502114912 53 87 1.0 2.0 0.00 0.00 0.00 91 1013.6
20260502114409 53 89 0.0 2.0 0.00 0.00 0.00 91 1013.5
20260502113906 54 78 1.0 2.0 0.00 0.00 0.00 90 1013.5
20260502113404 54 75 1.0 1.0 0.00 0.00 0.00 90 1013.5
20260502112902 54 76 2.0 2.0 0.00 0.00 0.00 90 1013.2
20260502112359 54 40 2.0 3.0 0.00 0.00 0.00 91 1013.4
20260502111856 54 38 1.0 2.0 0.00 0.00 0.00 91 1013.3
20260502111354 54 89 1.0 3.0 0.00 0.00 0.00 90 1013.2
20260502110851 54 44 0.0 1.0 0.00 0.00 0.00 90 1013.3
20260502110349 54 107 0.0 1.0 0.00 0.00 0.00 90 1013.0
20260502105846 54 84 0.0 1.0 0.00 0.00 0.00 89 1013.1
20260502105343 55 103 0.0 1.0 0.00 0.00 0.00 89 1013.1
20260502104841 55 36 0.0 3.0 0.00 0.00 0.00 89 1013.2
20260502104338 55 18 2.0 4.0 0.00 0.00 0.00 89 1013.1
20260502103835 55 87 0.0 3.0 0.00 0.00 0.00 89 1013.2
20260502103332 55 48 2.0 2.0 0.00 0.00 0.00 89 1013.3
20260502102830 55 25 0.0 2.0 0.00 0.00 0.00 89 1013.3
20260502102326 55 13 1.0 2.0 0.00 0.00 0.00 89 1013.2
20260502101824 55 73 0.0 2.0 0.00 0.00 0.00 88 1013.1
20260502101322 55 359 2.0 4.0 0.00 0.00 0.00 88 1013.3
20260502100820 55 12 3.0 3.0 0.00 0.00 0.00 89 1013.2
20260502100319 55 31 1.0 2.0 0.00 0.00 0.00 89 1013.1
20260502091252 55 49 0.0 4.0 0.00 0.00 0.00 87 1013.6
20260502090750 55 64 0.0 2.0 0.00 0.00 0.00 87 1013.6
20260502090246 55 304 0.0 3.0 0.00 0.00 0.00 87 1013.5
20260502071147 57 66 1.0 2.0 0.00 0.00 0.00 84 1014.1
20260502070645 57 89 0.0 3.0 0.00 0.00 0.00 84 1014.3
20260502070143 57 18 2.0 3.0 0.00 0.00 0.00 83 1014.2
20260502065641 57 56 1.0 2.0 0.00 0.00 0.00 83 1014.2
20260502065138 57 24 2.0 2.0 0.00 0.00 0.00 83 1014.1
20260502064637 57 3 2.0 3.0 0.00 0.00 0.00 83 1014.2
20260502064134 58 18 1.0 2.0 0.00 0.00 0.00 83 1014.1
20260502063631 58 40 1.0 2.0 0.00 0.00 0.00 83 1014.0
20260502063129 58 76 1.0 2.0 0.00 0.00 0.00 82 1014.1
20260502062626 58 72 1.0 2.0 0.00 0.00 0.00 81 1014.2
20260502062123 58 298 2.0 2.0 0.00 0.00 0.00 82 1013.9
20260502061622 58 59 1.0 2.0 0.00 0.00 0.00 82 1013.9
20260502061119 59 51 2.0 3.0 0.00 0.00 0.00 82 1013.8
20260502060619 59 48 1.0 2.0 0.00 0.00 0.00 82 1013.9
20260502060116 59 43 0.0 2.0 0.00 0.00 0.00 81 1014.0
20260502055614 59 89 2.0 2.0 0.00 0.00 0.00 81 1013.9
20260502055112 59 37 2.0 3.0 0.00 0.00 0.00 80 1014.0
20260502054610 60 79 1.0 2.0 0.00 0.00 0.00 80 1013.9
20260502054107 60 47 2.0 2.0 0.00 0.00 0.00 80 1013.8
20260502053604 60 38 1.0 2.0 0.00 0.00 0.00 80 1014.0
20260502053101 60 83 1.0 2.0 0.00 0.00 0.00 81 1014.0
20260502052600 60 85 1.0 2.0 0.00 0.00 0.00 80 1013.8
20260502052058 60 85 1.0 2.0 0.00 0.00 0.00 80 1013.8
20260502051555 60 79 1.0 2.0 0.00 0.00 0.00 78 1013.8
20260502051053 60 84 0.0 2.0 0.00 0.00 0.00 77 1013.8
20260502050549 60 79 1.0 2.0 0.00 0.00 0.00 76 1013.8
20260502050046 60 89 2.0 2.0 0.00 0.00 0.00 75 1013.9
20260502045543 61 76 1.0 2.0 0.00 0.00 0.00 76 1013.9
20260502045040 61 28 1.0 2.0 0.00 0.00 0.00 76 1013.6
20260502044536 61 89 0.0 1.0 0.00 0.00 0.00 76 1013.6
20260502044033 62 83 0.0 2.0 0.00 0.00 0.00 77 1013.6
20260502043531 62 8 0.0 0.0 0.00 0.00 0.00 78 1013.4
20260502043026 62 48 0.0 1.0 0.00 0.00 0.00 76 1013.4
20260502042522 63 65 1.0 1.0 0.00 0.00 0.00 75 1013.5
20260502042020 63 45 2.0 2.0 0.00 0.00 0.00 75 1013.2
20260502041517 63 22 2.0 2.0 0.00 0.00 0.00 74 1013.2
20260502041014 63 334 1.0 2.0 0.00 0.00 0.00 74 1013.1
20260502040510 64 37 0.0 2.0 0.00 0.00 0.00 74 1013.0
20260502040008 64 43 3.0 4.0 0.00 0.00 0.00 73 1012.9
20260502035503 64 35 2.0 2.0 0.00 0.00 0.00 73 1012.9
20260502035001 64 328 0.0 2.0 0.00 0.00 0.00 73 1012.6
20260502034459 64 55 0.0 2.0 0.00 0.00 0.00 73 1012.5
20260502033957 64 337 0.0 2.0 0.00 0.00 0.00 73 1012.3
20260502033455 64 47 0.0 1.0 0.00 0.00 0.00 73 1012.3
20260502032951 64 55 0.0 1.0 0.00 0.00 0.00 73 1012.2
20260502032448 65 86 0.0 1.0 0.00 0.00 0.00 72 1012.1
20260502031944 65 345 2.0 3.0 0.00 0.00 0.00 72 1012.3
20260502031443 65 24 1.0 2.0 0.00 0.00 0.00 71 1012.2
20260502030941 66 2 1.0 2.0 0.00 0.00 0.00 71 1012.0
20260502030439 66 21 0.0 2.0 0.00 0.00 0.00 70 1012.2
20260502025936 66 296 0.0 3.0 0.00 0.00 0.00 70 1012.1
20260502025433 66 354 1.0 2.0 0.00 0.00 0.00 69 1012.0